Date_Time,Julian_Date,Latitude,Longitude,Instrument_Depth,U,V,Speed,Direction
(yyyy-mm-dd hh:mn:ss UTC),(JD),(+ deg. North),(+ deg. East),(m),(cm/s),(cm/s),(cm/s),(deg True)
1984-08-29 16:00:00 UTC,2445942.166667,29.6606,-93.3903,0079,12.90,1.58,13.0000,83.0000
1984-08-29 16:30:00 UTC,2445942.187500,29.6606,-93.3903,0079,12.84,2.03,13.0000,81.0000
1984-08-29 17:00:00 UTC,2445942.208333,29.6606,-93.3903,0079,12.61,3.14,13.0000,76.0000
1984-08-29 17:30:00 UTC,2445942.229167,29.6606,-93.3903,0079,12.14,4.66,13.0000,69.0000
1984-08-29 18:00:00 UTC,2445942.250000,29.6606,-93.3903,0079,10.69,5.45,12.0000,63.0000
1984-08-29 18:30:00 UTC,2445942.270833,29.6606,-93.3903,0079,10.50,5.82,12.0000,61.0000
1984-08-29 19:00:00 UTC,2445942.291667,29.6606,-93.3903,0079,10.39,6.00,12.0000,60.0000
1984-08-29 19:30:00 UTC,2445942.312500,29.6606,-93.3903,0079,11.26,6.50,13.0000,60.0000
1984-08-29 20:00:00 UTC,2445942.333333,29.6606,-93.3903,0079,9.80,4.99,11.0000,63.0000
1984-08-29 20:30:00 UTC,2445942.354167,29.6606,-93.3903,0079,9.06,4.23,10.0000,65.0000
1984-08-29 21:00:00 UTC,2445942.375000,29.6606,-93.3903,0079,7.13,3.63,8.0000,63.0000
1984-08-29 21:30:00 UTC,2445942.395833,29.6606,-93.3903,0079,7.06,3.76,8.0000,62.0000
1984-08-29 22:00:00 UTC,2445942.416667,29.6606,-93.3903,0079,6.12,3.39,7.0000,61.0000
1984-08-29 22:30:00 UTC,2445942.437500,29.6606,-93.3903,0079,6.06,3.50,7.0000,60.0000
1984-08-29 23:00:00 UTC,2445942.458333,29.6606,-93.3903,0079,7.06,3.76,8.0000,62.0000
1984-08-29 23:30:00 UTC,2445942.479167,29.6606,-93.3903,0079,8.40,3.23,9.0000,69.0000
1984-08-30 00:00:00 UTC,2445942.500000,29.6606,-93.3903,0079,10.76,2.29,11.0000,78.0000
1984-08-30 00:30:00 UTC,2445942.520833,29.6606,-93.3903,0079,11.99,0.42,12.0000,88.0000
1984-08-30 01:00:00 UTC,2445942.541667,29.6606,-93.3903,0079,12.99,-0.45,13.0000,92.0000
1984-08-30 01:30:00 UTC,2445942.562500,29.6606,-93.3903,0079,11.97,-0.84,12.0000,94.0000
1984-08-30 02:00:00 UTC,2445942.583333,29.6606,-93.3903,0079,11.93,-1.25,12.0000,96.0000
1984-08-30 02:30:00 UTC,2445942.604167,29.6606,-93.3903,0079,11.95,-1.05,12.0000,95.0000
1984-08-30 03:00:00 UTC,2445942.625000,29.6606,-93.3903,0079,11.98,-0.63,12.0000,93.0000
1984-08-30 03:30:00 UTC,2445942.645833,29.6606,-93.3903,0079,14.00,-0.24,14.0000,91.0000
1984-08-30 04:00:00 UTC,2445942.666667,29.6606,-93.3903,0079,15.00,0.26,15.0000,89.0000
1984-08-30 04:30:00 UTC,2445942.687500,29.6606,-93.3903,0079,14.99,0.52,15.0000,88.0000
1984-08-30 05:00:00 UTC,2445942.708333,29.6606,-93.3903,0079,13.98,0.73,14.0000,87.0000
1984-08-30 05:30:00 UTC,2445942.729167,29.6606,-93.3903,0079,11.85,1.88,12.0000,81.0000
1984-08-30 06:00:00 UTC,2445942.750000,29.6606,-93.3903,0079,9.61,2.76,10.0000,74.0000
1984-08-30 06:30:00 UTC,2445942.770833,29.6606,-93.3903,0079,9.61,2.76,10.0000,74.0000
1984-08-30 07:00:00 UTC,2445942.791667,29.6606,-93.3903,0079,8.73,2.18,9.0000,76.0000
1984-08-30 07:30:00 UTC,2445942.812500,29.6606,-93.3903,0079,8.73,2.18,9.0000,76.0000
1984-08-30 08:00:00 UTC,2445942.833333,29.6606,-93.3903,0079,8.80,1.87,9.0000,78.0000
1984-08-30 08:30:00 UTC,2445942.854167,29.6606,-93.3903,0079,7.90,1.25,8.0000,81.0000
1984-08-30 09:00:00 UTC,2445942.875000,29.6606,-93.3903,0079,6.97,0.61,7.0000,85.0000
1984-08-30 09:30:00 UTC,2445942.895833,29.6606,-93.3903,0079,4.99,-0.35,5.0000,94.0000
1984-08-30 10:00:00 UTC,2445942.916667,29.6606,-93.3903,0079,4.87,-1.12,5.0000,103.0000
1984-08-30 10:30:00 UTC,2445942.937500,29.6606,-93.3903,0079,5.85,-1.35,6.0000,103.0000
1984-08-30 11:00:00 UTC,2445942.958333,29.6606,-93.3903,0079,7.79,-1.80,8.0000,103.0000
1984-08-30 11:30:00 UTC,2445942.979167,29.6606,-93.3903,0079,7.61,-2.47,8.0000,108.0000
1984-08-30 12:00:00 UTC,2445943.000000,29.6606,-93.3903,0079,7.31,-3.25,8.0000,114.0000
1984-08-30 12:30:00 UTC,2445943.020833,29.6606,-93.3903,0079,7.25,-3.38,8.0000,115.0000
1984-08-30 13:00:00 UTC,2445943.041667,29.6606,-93.3903,0079,8.28,-3.52,9.0000,113.0000
1984-08-30 13:30:00 UTC,2445943.062500,29.6606,-93.3903,0079,9.40,-3.42,10.0000,110.0000
1984-08-30 14:00:00 UTC,2445943.083333,29.6606,-93.3903,0079,10.46,-3.40,11.0000,108.0000
1984-08-30 14:30:00 UTC,2445943.104167,29.6606,-93.3903,0079,11.54,-3.31,12.0000,106.0000
1984-08-30 15:00:00 UTC,2445943.125000,29.6606,-93.3903,0079,10.67,-2.66,11.0000,104.0000
1984-08-30 15:30:00 UTC,2445943.145833,29.6606,-93.3903,0079,10.92,-1.34,11.0000,97.0000
1984-08-30 16:00:00 UTC,2445943.166667,29.6606,-93.3903,0079,11.99,0.42,12.0000,88.0000
1984-08-30 16:30:00 UTC,2445943.187500,29.6606,-93.3903,0079,12.76,2.48,13.0000,79.0000
1984-08-30 17:00:00 UTC,2445943.208333,29.6606,-93.3903,0079,12.43,3.80,13.0000,73.0000
1984-08-30 17:30:00 UTC,2445943.229167,29.6606,-93.3903,0079,12.36,4.02,13.0000,72.0000
1984-08-30 18:00:00 UTC,2445943.250000,29.6606,-93.3903,0079,12.36,4.02,13.0000,72.0000
1984-08-30 18:30:00 UTC,2445943.270833,29.6606,-93.3903,0079,11.35,3.91,12.0000,71.0000
1984-08-30 19:00:00 UTC,2445943.291667,29.6606,-93.3903,0079,9.21,3.91,10.0000,67.0000
1984-08-30 19:30:00 UTC,2445943.312500,29.6606,-93.3903,0079,8.22,3.66,9.0000,66.0000
1984-08-30 20:00:00 UTC,2445943.333333,29.6606,-93.3903,0079,6.44,2.74,7.0000,67.0000
1984-08-30 20:30:00 UTC,2445943.354167,29.6606,-93.3903,0079,6.24,3.18,7.0000,63.0000
1984-08-30 21:00:00 UTC,2445943.375000,29.6606,-93.3903,0079,6.24,3.18,7.0000,63.0000
1984-08-30 21:30:00 UTC,2445943.395833,29.6606,-93.3903,0079,6.54,2.51,7.0000,69.0000
1984-08-30 22:00:00 UTC,2445943.416667,29.6606,-93.3903,0079,6.89,1.22,7.0000,80.0000
1984-08-30 22:30:00 UTC,2445943.437500,29.6606,-93.3903,0079,5.97,0.63,6.0000,84.0000
1984-08-30 23:00:00 UTC,2445943.458333,29.6606,-93.3903,0079,6.00,0.21,6.0000,88.0000
1984-08-30 23:30:00 UTC,2445943.479167,29.6606,-93.3903,0079,5.91,-1.04,6.0000,100.0000
1984-08-31 00:00:00 UTC,2445943.500000,29.6606,-93.3903,0079,6.54,-2.51,7.0000,111.0000
1984-08-31 00:30:00 UTC,2445943.520833,29.6606,-93.3903,0079,8.09,-3.95,9.0000,116.0000
1984-08-31 01:00:00 UTC,2445943.541667,29.6606,-93.3903,0079,9.62,-5.33,11.0000,119.0000
1984-08-31 01:30:00 UTC,2445943.562500,29.6606,-93.3903,0079,9.23,-5.99,11.0000,123.0000
1984-08-31 02:00:00 UTC,2445943.583333,29.6606,-93.3903,0079,8.67,-6.77,11.0000,128.0000
1984-08-31 02:30:00 UTC,2445943.604167,29.6606,-93.3903,0079,7.88,-6.16,10.0000,128.0000
1984-08-31 03:00:00 UTC,2445943.625000,29.6606,-93.3903,0079,8.19,-5.74,10.0000,125.0000
1984-08-31 03:30:00 UTC,2445943.645833,29.6606,-93.3903,0079,7.99,-6.02,10.0000,127.0000
1984-08-31 04:00:00 UTC,2445943.666667,29.6606,-93.3903,0079,7.31,-6.82,10.0000,133.0000
1984-08-31 04:30:00 UTC,2445943.687500,29.6606,-93.3903,0079,6.95,-7.19,10.0000,136.0000
1984-08-31 05:00:00 UTC,2445943.708333,29.6606,-93.3903,0079,7.19,-6.95,10.0000,134.0000
1984-08-31 05:30:00 UTC,2445943.729167,29.6606,-93.3903,0079,6.79,-5.90,9.0000,131.0000
1984-08-31 06:00:00 UTC,2445943.750000,29.6606,-93.3903,0079,5.56,-5.75,8.0000,136.0000
1984-08-31 06:30:00 UTC,2445943.770833,29.6606,-93.3903,0079,3.39,-6.12,7.0000,151.0000
1984-08-31 07:00:00 UTC,2445943.791667,29.6606,-93.3903,0079,1.25,-5.87,6.0000,168.0000
1984-08-31 07:30:00 UTC,2445943.812500,29.6606,-93.3903,0079,-0.61,-4.96,5.0000,187.0000
1984-08-31 08:00:00 UTC,2445943.833333,29.6606,-93.3903,0079,-1.50,-3.71,4.0000,202.0000
1984-08-31 08:30:00 UTC,2445943.854167,29.6606,-93.3903,0079,-0.97,-1.75,2.0000,209.0000
1984-08-31 09:00:00 UTC,2445943.875000,29.6606,-93.3903,0079,-0.92,-0.39,1.0000,247.0000
1984-08-31 09:30:00 UTC,2445943.895833,29.6606,-93.3903,0079,-1.00,-0.07,1.0000,266.0000
1984-08-31 10:00:00 UTC,2445943.916667,29.6606,-93.3903,0079,-1.00,0.09,1.0000,275.0000
1984-08-31 10:30:00 UTC,2445943.937500,29.6606,-93.3903,0079,-0.00,0.00,0.0000,312.0000
1984-08-31 11:00:00 UTC,2445943.958333,29.6606,-93.3903,0079,-0.00,0.00,0.0000,275.0000
1984-08-31 11:30:00 UTC,2445943.979167,29.6606,-93.3903,0079,-0.00,-0.00,0.0000,257.0000
1984-08-31 12:00:00 UTC,2445944.000000,29.6606,-93.3903,0079,-0.00,-0.00,0.0000,260.0000
1984-08-31 12:30:00 UTC,2445944.020833,29.6606,-93.3903,0079,-0.00,0.00,0.0000,274.0000
1984-08-31 13:00:00 UTC,2445944.041667,29.6606,-93.3903,0079,-0.00,0.00,0.0000,275.0000
1984-08-31 13:30:00 UTC,2445944.062500,29.6606,-93.3903,0079,-0.00,0.00,0.0000,275.0000
1984-08-31 14:00:00 UTC,2445944.083333,29.6606,-93.3903,0079,-0.00,0.00,0.0000,291.0000
1984-08-31 14:30:00 UTC,2445944.104167,29.6606,-93.3903,0079,-0.00,0.00,0.0000,349.0000
1984-08-31 15:00:00 UTC,2445944.125000,29.6606,-93.3903,0079,0.64,-0.77,1.0000,140.0000
1984-08-31 15:30:00 UTC,2445944.145833,29.6606,-93.3903,0079,1.68,-2.49,3.0000,146.0000
1984-08-31 16:00:00 UTC,2445944.166667,29.6606,-93.3903,0079,0.98,-2.84,3.0000,161.0000
1984-08-31 16:30:00 UTC,2445944.187500,29.6606,-93.3903,0079,-1.37,-3.76,4.0000,200.0000
1984-08-31 17:00:00 UTC,2445944.208333,29.6606,-93.3903,0079,-3.36,-4.97,6.0000,214.0000
1984-08-31 17:30:00 UTC,2445944.229167,29.6606,-93.3903,0079,-3.21,-3.83,5.0000,220.0000
1984-08-31 18:00:00 UTC,2445944.250000,29.6606,-93.3903,0079,-2.36,-1.85,3.0000,232.0000
1984-08-31 18:30:00 UTC,2445944.270833,29.6606,-93.3903,0079,-1.89,-0.65,2.0000,251.0000
1984-08-31 19:00:00 UTC,2445944.291667,29.6606,-93.3903,0079,-1.96,-0.42,2.0000,258.0000
1984-08-31 19:30:00 UTC,2445944.312500,29.6606,-93.3903,0079,-2.95,-0.52,3.0000,260.0000
1984-08-31 20:00:00 UTC,2445944.333333,29.6606,-93.3903,0079,-4.87,-1.12,5.0000,257.0000
1984-08-31 20:30:00 UTC,2445944.354167,29.6606,-93.3903,0079,-6.73,-1.93,7.0000,254.0000
1984-08-31 21:00:00 UTC,2445944.375000,29.6606,-93.3903,0079,-10.57,-3.03,11.0000,254.0000
1984-08-31 21:30:00 UTC,2445944.395833,29.6606,-93.3903,0079,-13.31,-4.33,14.0000,252.0000
1984-08-31 22:00:00 UTC,2445944.416667,29.6606,-93.3903,0079,-14.83,-5.99,16.0000,248.0000
1984-08-31 22:30:00 UTC,2445944.437500,29.6606,-93.3903,0079,-16.44,-7.32,18.0000,246.0000
1984-08-31 23:00:00 UTC,2445944.458333,29.6606,-93.3903,0079,-17.36,-7.73,19.0000,246.0000
1984-08-31 23:30:00 UTC,2445944.479167,29.6606,-93.3903,0079,-17.62,-7.12,19.0000,248.0000
1984-09-01 00:00:00 UTC,2445944.500000,29.6606,-93.3903,0079,-16.34,-4.69,17.0000,254.0000
1984-09-01 00:30:00 UTC,2445944.520833,29.6606,-93.3903,0079,-16.87,-2.07,17.0000,263.0000
1984-09-01 01:00:00 UTC,2445944.541667,29.6606,-93.3903,0079,-17.00,-0.30,17.0000,269.0000
1984-09-01 01:30:00 UTC,2445944.562500,29.6606,-93.3903,0079,-15.99,0.56,16.0000,272.0000
1984-09-01 02:00:00 UTC,2445944.583333,29.6606,-93.3903,0079,-13.99,0.49,14.0000,272.0000
1984-09-01 02:30:00 UTC,2445944.604167,29.6606,-93.3903,0079,-12.98,0.68,13.0000,273.0000
1984-09-01 03:00:00 UTC,2445944.625000,29.6606,-93.3903,0079,-12.93,1.36,13.0000,276.0000
1984-09-01 03:30:00 UTC,2445944.645833,29.6606,-93.3903,0079,-12.95,1.13,13.0000,275.0000
1984-09-01 04:00:00 UTC,2445944.666667,29.6606,-93.3903,0079,-12.00,0.21,12.0000,271.0000
1984-09-01 04:30:00 UTC,2445944.687500,29.6606,-93.3903,0079,-12.00,-0.00,12.0000,270.0000
1984-09-01 05:00:00 UTC,2445944.708333,29.6606,-93.3903,0079,-10.99,0.38,11.0000,272.0000
1984-09-01 05:30:00 UTC,2445944.729167,29.6606,-93.3903,0079,-11.99,0.42,12.0000,272.0000
1984-09-01 06:00:00 UTC,2445944.750000,29.6606,-93.3903,0079,-13.00,-0.23,13.0000,269.0000
1984-09-01 06:30:00 UTC,2445944.770833,29.6606,-93.3903,0079,-13.00,-0.00,13.0000,270.0000
1984-09-01 07:00:00 UTC,2445944.791667,29.6606,-93.3903,0079,-11.91,1.46,12.0000,277.0000
1984-09-01 07:30:00 UTC,2445944.812500,29.6606,-93.3903,0079,-10.83,1.91,11.0000,280.0000
1984-09-01 08:00:00 UTC,2445944.833333,29.6606,-93.3903,0079,-10.94,1.15,11.0000,276.0000
1984-09-01 08:30:00 UTC,2445944.854167,29.6606,-93.3903,0079,-10.96,0.96,11.0000,275.0000
1984-09-01 09:00:00 UTC,2445944.875000,29.6606,-93.3903,0079,-11.88,1.67,12.0000,278.0000
1984-09-01 09:30:00 UTC,2445944.895833,29.6606,-93.3903,0079,-11.91,1.46,12.0000,277.0000
1984-09-01 10:00:00 UTC,2445944.916667,29.6606,-93.3903,0079,-10.98,0.58,11.0000,273.0000
1984-09-01 10:30:00 UTC,2445944.937500,29.6606,-93.3903,0079,-10.92,1.34,11.0000,277.0000
1984-09-01 11:00:00 UTC,2445944.958333,29.6606,-93.3903,0079,-9.82,1.91,10.0000,281.0000
1984-09-01 11:30:00 UTC,2445944.979167,29.6606,-93.3903,0079,-9.96,0.87,10.0000,275.0000
1984-09-01 12:00:00 UTC,2445945.000000,29.6606,-93.3903,0079,-9.00,0.16,9.0000,271.0000
1984-09-01 12:30:00 UTC,2445945.020833,29.6606,-93.3903,0079,-8.00,-0.00,8.0000,270.0000
1984-09-01 13:00:00 UTC,2445945.041667,29.6606,-93.3903,0079,-8.00,-0.28,8.0000,268.0000
1984-09-01 13:30:00 UTC,2445945.062500,29.6606,-93.3903,0079,-7.92,-1.11,8.0000,262.0000
1984-09-01 14:00:00 UTC,2445945.083333,29.6606,-93.3903,0079,-7.73,-2.07,8.0000,255.0000
1984-09-01 14:30:00 UTC,2445945.104167,29.6606,-93.3903,0079,-6.79,-1.69,7.0000,256.0000
1984-09-01 15:00:00 UTC,2445945.125000,29.6606,-93.3903,0079,-6.93,-0.97,7.0000,262.0000
1984-09-01 15:30:00 UTC,2445945.145833,29.6606,-93.3903,0079,-6.58,-2.39,7.0000,250.0000
1984-09-01 16:00:00 UTC,2445945.166667,29.6606,-93.3903,0079,-5.14,-6.13,8.0000,220.0000
1984-09-01 16:30:00 UTC,2445945.187500,29.6606,-93.3903,0079,-3.18,-6.24,7.0000,207.0000
1984-09-01 17:00:00 UTC,2445945.208333,29.6606,-93.3903,0079,-2.83,-2.83,4.0000,225.0000
1984-09-01 17:30:00 UTC,2445945.229167,29.6606,-93.3903,0079,-3.80,-1.24,4.0000,252.0000
1984-09-01 18:00:00 UTC,2445945.250000,29.6606,-93.3903,0079,-4.57,-2.03,5.0000,246.0000
1984-09-01 18:30:00 UTC,2445945.270833,29.6606,-93.3903,0079,-3.06,-2.57,4.0000,230.0000
1984-09-01 19:00:00 UTC,2445945.291667,29.6606,-93.3903,0079,-1.00,-1.73,2.0000,210.0000
1984-09-01 19:30:00 UTC,2445945.312500,29.6606,-93.3903,0079,-0.12,-0.99,1.0000,187.0000
1984-09-01 20:00:00 UTC,2445945.333333,29.6606,-93.3903,0079,-0.00,-0.00,0.0000,210.0000
1984-09-01 20:30:00 UTC,2445945.354167,29.6606,-93.3903,0079,-1.94,-0.48,2.0000,256.0000
1984-09-01 21:00:00 UTC,2445945.375000,29.6606,-93.3903,0079,-4.98,0.44,5.0000,275.0000
1984-09-01 21:30:00 UTC,2445945.395833,29.6606,-93.3903,0079,-7.92,1.11,8.0000,278.0000
1984-09-01 22:00:00 UTC,2445945.416667,29.6606,-93.3903,0079,-9.98,-0.70,10.0000,266.0000
1984-09-01 22:30:00 UTC,2445945.437500,29.6606,-93.3903,0079,-9.66,-2.59,10.0000,255.0000
1984-09-01 23:00:00 UTC,2445945.458333,29.6606,-93.3903,0079,-8.69,-2.33,9.0000,255.0000
1984-09-01 23:30:00 UTC,2445945.479167,29.6606,-93.3903,0079,-4.94,-0.78,5.0000,261.0000
1984-09-02 00:00:00 UTC,2445945.500000,29.6606,-93.3903,0079,-2.00,0.14,2.0000,274.0000
1984-09-02 00:30:00 UTC,2445945.520833,29.6606,-93.3903,0079,-0.00,0.00,0.0000,297.0000
1984-09-02 01:00:00 UTC,2445945.541667,29.6606,-93.3903,0079,-1.73,1.00,2.0000,300.0000
1984-09-02 01:30:00 UTC,2445945.562500,29.6606,-93.3903,0079,-3.39,2.12,4.0000,302.0000
1984-09-02 02:00:00 UTC,2445945.583333,29.6606,-93.3903,0079,-4.78,1.46,5.0000,287.0000
1984-09-02 02:30:00 UTC,2445945.604167,29.6606,-93.3903,0079,-3.88,-0.97,4.0000,256.0000
1984-09-02 03:00:00 UTC,2445945.625000,29.6606,-93.3903,0079,-1.68,-1.09,2.0000,237.0000
1984-09-02 03:30:00 UTC,2445945.645833,29.6606,-93.3903,0079,0.07,-1.00,1.0000,176.0000
1984-09-02 04:00:00 UTC,2445945.666667,29.6606,-93.3903,0079,0.95,-0.33,1.0000,109.0000
1984-09-02 04:30:00 UTC,2445945.687500,29.6606,-93.3903,0079,0.98,-0.19,1.0000,101.0000
1984-09-02 05:00:00 UTC,2445945.708333,29.6606,-93.3903,0079,0.00,-0.00,0.0000,91.0000
1984-09-02 05:30:00 UTC,2445945.729167,29.6606,-93.3903,0079,0.00,0.00,0.0000,41.0000
1984-09-02 06:00:00 UTC,2445945.750000,29.6606,-93.3903,0079,-0.00,0.00,0.0000,350.0000
1984-09-02 06:30:00 UTC,2445945.770833,29.6606,-93.3903,0079,-0.00,0.00,0.0000,313.0000
1984-09-02 07:00:00 UTC,2445945.791667,29.6606,-93.3903,0079,-0.00,0.00,0.0000,276.0000
1984-09-02 07:30:00 UTC,2445945.812500,29.6606,-93.3903,0079,-0.90,-0.44,1.0000,244.0000
1984-09-02 08:00:00 UTC,2445945.833333,29.6606,-93.3903,0079,0.00,-0.00,0.0000,172.0000
1984-09-02 08:30:00 UTC,2445945.854167,29.6606,-93.3903,0079,0.99,0.10,1.0000,84.0000
1984-09-02 09:00:00 UTC,2445945.875000,29.6606,-93.3903,0079,1.98,0.31,2.0000,81.0000
1984-09-02 09:30:00 UTC,2445945.895833,29.6606,-93.3903,0079,1.89,0.65,2.0000,71.0000
1984-09-02 10:00:00 UTC,2445945.916667,29.6606,-93.3903,0079,0.68,0.73,1.0000,43.0000
1984-09-02 10:30:00 UTC,2445945.937500,29.6606,-93.3903,0079,-0.00,-0.00,0.0000,247.0000
1984-09-02 11:00:00 UTC,2445945.958333,29.6606,-93.3903,0079,-0.79,-0.62,1.0000,232.0000
1984-09-02 11:30:00 UTC,2445945.979167,29.6606,-93.3903,0079,-0.00,0.00,0.0000,275.0000
1984-09-02 12:00:00 UTC,2445946.000000,29.6606,-93.3903,0079,0.00,0.00,0.0000,83.0000
1984-09-02 12:30:00 UTC,2445946.020833,29.6606,-93.3903,0079,-0.72,-1.87,2.0000,201.0000
1984-09-02 13:00:00 UTC,2445946.041667,29.6606,-93.3903,0079,-0.78,-0.63,1.0000,231.0000
1984-09-02 13:30:00 UTC,2445946.062500,29.6606,-93.3903,0079,3.71,1.50,4.0000,68.0000
1984-09-02 14:00:00 UTC,2445946.083333,29.6606,-93.3903,0079,12.56,-3.36,13.0000,105.0000
1984-09-02 14:30:00 UTC,2445946.104167,29.6606,-93.3903,0079,16.62,-9.21,19.0000,119.0000
1984-09-02 15:00:00 UTC,2445946.125000,29.6606,-93.3903,0079,12.86,-7.73,15.0000,121.0000
1984-09-02 15:30:00 UTC,2445946.145833,29.6606,-93.3903,0079,5.46,-5.85,8.0000,137.0000
1984-09-02 16:00:00 UTC,2445946.166667,29.6606,-93.3903,0079,0.00,-6.00,6.0000,180.0000
1984-09-02 16:30:00 UTC,2445946.187500,29.6606,-93.3903,0079,-0.52,-2.95,3.0000,190.0000
1984-09-02 17:00:00 UTC,2445946.208333,29.6606,-93.3903,0079,4.00,-0.07,4.0000,91.0000
1984-09-02 17:30:00 UTC,2445946.229167,29.6606,-93.3903,0079,10.96,-0.96,11.0000,95.0000
1984-09-02 18:00:00 UTC,2445946.250000,29.6606,-93.3903,0079,13.81,-5.86,15.0000,113.0000
1984-09-02 18:30:00 UTC,2445946.270833,29.6606,-93.3903,0079,14.72,-8.50,17.0000,120.0000
1984-09-02 19:00:00 UTC,2445946.291667,29.6606,-93.3903,0079,14.00,-5.38,15.0000,111.0000
1984-09-02 19:30:00 UTC,2445946.312500,29.6606,-93.3903,0079,12.98,-0.68,13.0000,93.0000
1984-09-02 20:00:00 UTC,2445946.333333,29.6606,-93.3903,0079,14.92,1.57,15.0000,84.0000
1984-09-02 20:30:00 UTC,2445946.354167,29.6606,-93.3903,0079,16.94,1.48,17.0000,85.0000
1984-09-02 21:00:00 UTC,2445946.375000,29.6606,-93.3903,0079,15.91,1.67,16.0000,84.0000
1984-09-02 21:30:00 UTC,2445946.395833,29.6606,-93.3903,0079,11.78,2.29,12.0000,79.0000
1984-09-02 22:00:00 UTC,2445946.416667,29.6606,-93.3903,0079,9.14,4.07,10.0000,66.0000
1984-09-02 22:30:00 UTC,2445946.437500,29.6606,-93.3903,0079,8.48,5.30,10.0000,58.0000
1984-09-02 23:00:00 UTC,2445946.458333,29.6606,-93.3903,0079,10.05,4.47,11.0000,66.0000
1984-09-02 23:30:00 UTC,2445946.479167,29.6606,-93.3903,0079,12.14,4.66,13.0000,69.0000
1984-09-03 00:00:00 UTC,2445946.500000,29.6606,-93.3903,0079,14.83,5.99,16.0000,68.0000
1984-09-03 00:30:00 UTC,2445946.520833,29.6606,-93.3903,0079,15.30,4.68,16.0000,73.0000
1984-09-03 01:00:00 UTC,2445946.541667,29.6606,-93.3903,0079,14.55,3.63,15.0000,76.0000
1984-09-03 01:30:00 UTC,2445946.562500,29.6606,-93.3903,0079,13.46,3.86,14.0000,74.0000
1984-09-03 02:00:00 UTC,2445946.583333,29.6606,-93.3903,0079,15.80,2.50,16.0000,81.0000
1984-09-03 02:30:00 UTC,2445946.604167,29.6606,-93.3903,0079,16.83,-2.37,17.0000,98.0000
1984-09-03 03:00:00 UTC,2445946.625000,29.6606,-93.3903,0079,16.18,-7.89,18.0000,116.0000
1984-09-03 03:30:00 UTC,2445946.645833,29.6606,-93.3903,0079,11.98,-9.03,15.0000,127.0000
1984-09-03 04:00:00 UTC,2445946.666667,29.6606,-93.3903,0079,9.33,-5.83,11.0000,122.0000
1984-09-03 04:30:00 UTC,2445946.687500,29.6606,-93.3903,0079,12.56,-3.36,13.0000,105.0000
1984-09-03 05:00:00 UTC,2445946.708333,29.6606,-93.3903,0079,17.54,-4.05,18.0000,103.0000
1984-09-03 05:30:00 UTC,2445946.729167,29.6606,-93.3903,0079,19.33,-8.21,21.0000,113.0000
1984-09-03 06:00:00 UTC,2445946.750000,29.6606,-93.3903,0079,18.24,-12.30,22.0000,124.0000
1984-09-03 06:30:00 UTC,2445946.770833,29.6606,-93.3903,0079,14.34,-12.47,19.0000,131.0000
1984-09-03 07:00:00 UTC,2445946.791667,29.6606,-93.3903,0079,10.28,-12.26,16.0000,140.0000
1984-09-03 07:30:00 UTC,2445946.812500,29.6606,-93.3903,0079,8.48,-13.57,16.0000,148.0000
1984-09-03 08:00:00 UTC,2445946.833333,29.6606,-93.3903,0079,8.17,-12.58,15.0000,147.0000
1984-09-03 08:30:00 UTC,2445946.854167,29.6606,-93.3903,0079,9.00,-10.72,14.0000,140.0000
1984-09-03 09:00:00 UTC,2445946.875000,29.6606,-93.3903,0079,9.44,-11.66,15.0000,141.0000
1984-09-03 09:30:00 UTC,2445946.895833,29.6606,-93.3903,0079,7.73,-12.86,15.0000,149.0000
1984-09-03 10:00:00 UTC,2445946.916667,29.6606,-93.3903,0079,4.10,-11.28,12.0000,160.0000
1984-09-03 10:30:00 UTC,2445946.937500,29.6606,-93.3903,0079,0.94,-8.95,9.0000,174.0000
1984-09-03 11:00:00 UTC,2445946.958333,29.6606,-93.3903,0079,-1.72,-8.83,9.0000,191.0000
1984-09-03 11:30:00 UTC,2445946.979167,29.6606,-93.3903,0079,-3.75,-9.27,10.0000,202.0000
1984-09-03 12:00:00 UTC,2445947.000000,29.6606,-93.3903,0079,-2.60,-7.56,8.0000,199.0000
1984-09-03 12:30:00 UTC,2445947.020833,29.6606,-93.3903,0079,0.95,-4.91,5.0000,169.0000
1984-09-03 13:00:00 UTC,2445947.041667,29.6606,-93.3903,0079,3.78,-4.66,6.0000,141.0000
1984-09-03 13:30:00 UTC,2445947.062500,29.6606,-93.3903,0079,4.59,-5.28,7.0000,139.0000
1984-09-03 14:00:00 UTC,2445947.083333,29.6606,-93.3903,0079,4.47,-6.63,8.0000,146.0000
1984-09-03 14:30:00 UTC,2445947.104167,29.6606,-93.3903,0079,3.88,-7.00,8.0000,151.0000
1984-09-03 15:00:00 UTC,2445947.125000,29.6606,-93.3903,0079,3.61,-6.00,7.0000,149.0000
1984-09-03 15:30:00 UTC,2445947.145833,29.6606,-93.3903,0079,4.41,-5.44,7.0000,141.0000
1984-09-03 16:00:00 UTC,2445947.166667,29.6606,-93.3903,0079,4.50,-5.36,7.0000,140.0000
1984-09-03 16:30:00 UTC,2445947.187500,29.6606,-93.3903,0079,4.11,-5.66,7.0000,144.0000
1984-09-03 17:00:00 UTC,2445947.208333,29.6606,-93.3903,0079,4.64,-7.71,9.0000,149.0000
1984-09-03 17:30:00 UTC,2445947.229167,29.6606,-93.3903,0079,4.69,-8.83,10.0000,152.0000
1984-09-03 18:00:00 UTC,2445947.250000,29.6606,-93.3903,0079,5.99,-9.23,11.0000,147.0000
1984-09-03 18:30:00 UTC,2445947.270833,29.6606,-93.3903,0079,7.82,-10.38,13.0000,143.0000
1984-09-03 19:00:00 UTC,2445947.291667,29.6606,-93.3903,0079,7.03,-16.57,18.0000,157.0000
1984-09-03 19:30:00 UTC,2445947.312500,29.6606,-93.3903,0079,-1.10,-20.97,21.0000,183.0000
1984-09-03 20:00:00 UTC,2445947.333333,29.6606,-93.3903,0079,-10.00,-17.32,20.0000,210.0000
1984-09-03 20:30:00 UTC,2445947.354167,29.6606,-93.3903,0079,-13.40,-10.47,17.0000,232.0000
1984-09-03 21:00:00 UTC,2445947.375000,29.6606,-93.3903,0079,-13.99,-7.76,16.0000,241.0000
1984-09-03 21:30:00 UTC,2445947.395833,29.6606,-93.3903,0079,-14.73,-6.25,16.0000,247.0000
1984-09-03 22:00:00 UTC,2445947.416667,29.6606,-93.3903,0079,-14.85,-2.09,15.0000,262.0000
1984-09-03 22:30:00 UTC,2445947.437500,29.6606,-93.3903,0079,-10.80,2.10,11.0000,281.0000
1984-09-03 23:00:00 UTC,2445947.458333,29.6606,-93.3903,0079,-5.48,2.44,6.0000,294.0000
1984-09-03 23:30:00 UTC,2445947.479167,29.6606,-93.3903,0079,-3.50,1.94,4.0000,299.0000
1984-09-04 00:00:00 UTC,2445947.500000,29.6606,-93.3903,0079,-4.05,2.94,5.0000,306.0000
1984-09-04 00:30:00 UTC,2445947.520833,29.6606,-93.3903,0079,-4.86,5.04,7.0000,316.0000
1984-09-04 01:00:00 UTC,2445947.541667,29.6606,-93.3903,0079,-3.81,5.87,7.0000,327.0000
1984-09-04 01:30:00 UTC,2445947.562500,29.6606,-93.3903,0079,-2.87,7.47,8.0000,339.0000
1984-09-04 02:00:00 UTC,2445947.583333,29.6606,-93.3903,0079,-2.78,8.56,9.0000,342.0000
1984-09-04 02:30:00 UTC,2445947.604167,29.6606,-93.3903,0079,-3.94,10.27,11.0000,339.0000
1984-09-04 03:00:00 UTC,2445947.625000,29.6606,-93.3903,0079,-3.76,10.34,11.0000,340.0000
1984-09-04 03:30:00 UTC,2445947.645833,29.6606,-93.3903,0079,-2.08,11.82,12.0000,350.0000
1984-09-04 04:00:00 UTC,2445947.666667,29.6606,-93.3903,0079,1.22,13.95,14.0000,5.0000
1984-09-04 04:30:00 UTC,2445947.687500,29.6606,-93.3903,0079,4.79,13.16,14.0000,20.0000
1984-09-04 05:00:00 UTC,2445947.708333,29.6606,-93.3903,0079,8.00,10.24,13.0000,38.0000
1984-09-04 05:30:00 UTC,2445947.729167,29.6606,-93.3903,0079,10.38,7.82,13.0000,53.0000